Accueil
METAR-TAF:

METAR-TAF

Aéroports :

Colonel James Jabara Airport

Wichita, Kansas, États-Unis

latitude: 37-44-59N, longitude: 097-13-08W, altitude: 432 m

Observation

Le bulletin a été fait il y a 55 minutes, à 10:54 UTC
Vent 7 kt de nord-ouest
Température -6°C
Humidité 93%
Pression 1026 hPa
Visibilité: 16.1 km
Ciel clair

METAR: KAAO 101054Z AUTO 31007KT 10SM CLR M06/M07 A3030 RMK AO2 SLP274 T10611072

Heure: 05:49 (11:49 UTC)


TAF: absent

Observations et prévisions météorologiques de plus de 4000 aéroports (messages METAR et TAF).

Les stations disponibles sont représentées par des disques jaunes et rouges sur la carte.

Passer la souris dessus pour voir le nom de la station.

Cliquer dessus pour voir les observations et prévisions météorologiques.

Pour changer de carte: cliquez sur les boutons verts avec une croix noire pour zoomer, sur le bouton vert avec un tiret pour effectuer un zoom arrière, ou sur les flèches vertes pour les cartes adjacentes.


METAR-TAF: